Weather History for Gillette, WY

Change the Weather History Date:

Friday, February 15, 2013

  Actual Average Record
Temperature  
Mean Temperature 25 °F 27 °F  
Max Temperature 30 °F 38 °F 41 °F (2014)
Min Temperature 19 °F 16 °F 31 °F (2014)
Degree Days  
Heating Degree Days 40 38  
Month to date heating degree days 530 581  
Since 1 July heating degree days 4616 4936  
Cooling Degree Days 0 0  
Month to date cooling degree days 0 0  
Year to date cooling degree days 0 0  
Moisture  
Dew Point 18 °F    
Average Humidity 78    
Maximum Humidity 92    
Minimum Humidity 63    
Precipitation  
Precipitation 0.07 in 0.02 in 0.06 in (2014)
Month to date precipitation 0.29 0.23  
Year to date precipitation 0.70 0.62  
Sea Level Pressure  
Sea Level Pressure 30.31 in    
Wind  
Wind Speed 9 mph (West)    
Max Wind Speed 20 mph    
Max Gust Speed 23 mph    
Visibility 5 miles    
Events Snow    
T = Trace of Precipitation, MM = Missing Value Source: NWS Daily Summary

Daily Weather History Graph

Daily Weather History Graph

Search for Another Location

Airport:

Trip Planner

Search our weather history database for the weather conditions in past years. The results will help you decide how hot, cold, wet, or windy it might be!

Date:

Astronomy

Feb. 15, 2013 Rise Set
Actual Time 7:01 AM MST 5:31 PM MST
Civil Twilight 6:31 AM MST 6:01 PM MST
Nautical Twilight 5:57 AM MST 6:35 PM MST
Astronomical Twilight 5:24 AM MST 7:09 PM MST
Moon 9:24 AM MST (2/15) 11:51 PM MST (2/15)
Length of Visible Light 11h 29m
Length of Day
10h 30m
Waxing Crescent, 31% of the Moon is Illuminated
Feb 15
Waxing Crescent
Feb 17
First Quarter
Feb 25
Full
Mar 4
Last Quarter
Mar 11
New

Hourly Weather History & Observations

Time (MST) Temp. Windchill Dew Point Humidity Pressure Visibility Wind Dir Wind Speed Gust Speed Precip Events Conditions
12:53 AM 19.9 °F 6.2 °F 15.1 °F 81% 30.37 in 10.0 mi West 15.0 mph - N/A   Overcast
1:53 AM 19.9 °F 7.9 °F 17.1 °F 89% 30.36 in 10.0 mi West 11.5 mph - N/A   Overcast
2:53 AM 19.0 °F 6.8 °F 16.0 °F 88% 30.36 in 10.0 mi WSW 11.5 mph - N/A   Overcast
3:42 AM 21.2 °F 10.1 °F 17.6 °F 86% 30.22 in 10.0 mi West 10.4 mph - N/A   Overcast
3:53 AM 19.9 °F 11.1 °F 17.1 °F 89% 30.36 in 6.0 mi West 6.9 mph - N/A   Overcast
4:04 AM 19.4 °F 10.4 °F 17.6 °F 93% 30.22 in 2.5 mi West 6.9 mph - 0.00 in Snow Light Snow
4:19 AM 19.4 °F 9.5 °F 17.6 °F 93% 30.22 in 3.0 mi West 8.1 mph - 0.01 in Snow Light Snow
4:36 AM 19.4 °F 8.6 °F 17.6 °F 93% 30.21 in 2.0 mi West 9.2 mph - 0.01 in Snow Light Snow
4:53 AM 19.9 °F 9.3 °F 18.0 °F 92% 30.36 in 2.0 mi WSW 9.2 mph - 0.01 in Snow Light Snow
5:16 AM 19.4 °F 8.6 °F 17.6 °F 93% 30.22 in 4.0 mi West 9.2 mph - 0.00 in Snow Light Snow
5:30 AM 19.4 °F 9.5 °F 17.6 °F 93% 30.22 in 5.0 mi West 8.1 mph - 0.00 in   Overcast
5:44 AM 19.4 °F 9.5 °F 17.6 °F 93% 30.22 in 2.5 mi West 8.1 mph - 0.00 in Snow Light Snow
5:53 AM 19.9 °F 10.1 °F 18.0 °F 92% 30.39 in 3.0 mi West 8.1 mph - 0.01 in Snow Light Snow
6:20 AM 19.4 °F 7.9 °F 17.6 °F 93% 30.23 in 3.0 mi West 10.4 mph - 0.00 in Snow Light Snow
6:24 AM 19.4 °F 7.9 °F 17.6 °F 93% 30.23 in 2.5 mi West 10.4 mph - 0.00 in Snow Light Snow
6:31 AM 19.4 °F 8.6 °F 17.6 °F 93% 30.23 in 1.8 mi North 9.2 mph - 0.00 in Snow Light Snow
6:53 AM 19.0 °F 9.0 °F 17.1 °F 92% 30.43 in 1.8 mi North 8.1 mph - 0.01 in Snow Light Snow
7:17 AM 19.4 °F 11.5 °F 17.6 °F 93% 30.25 in 2.5 mi North 5.8 mph - 0.01 in Snow Light Snow
7:35 AM 19.4 °F 14.3 °F 17.6 °F 93% 30.26 in 3.0 mi North 3.5 mph - 0.01 in   Overcast
7:51 AM 19.4 °F 14.3 °F 17.6 °F 93% 30.27 in 2.0 mi North 3.5 mph - 0.01 in Snow Light Snow
7:53 AM 19.0 °F 13.9 °F 17.1 °F 92% 30.45 in 1.5 mi North 3.5 mph - 0.01 in Snow Light Snow
8:53 AM 19.9 °F 11.1 °F 18.0 °F 92% 30.47 in 1.0 mi NNW 6.9 mph - 0.01 in Snow Light Snow
9:10 AM 21.2 °F 11.7 °F 17.6 °F 86% 30.29 in 0.8 mi NNW 8.1 mph - 0.01 in Snow Light Snow
9:20 AM 21.2 °F 11.7 °F 17.6 °F 86% 30.30 in 0.8 mi NNW 8.1 mph - 0.01 in Snow Light Snow
9:31 AM 21.2 °F 11.7 °F 17.6 °F 86% 30.30 in 1.0 mi North 8.1 mph - 0.01 in Snow Light Snow
9:53 AM 21.0 °F 13.4 °F 19.0 °F 92% 30.48 in 1.8 mi North 5.8 mph - 0.02 in Snow Light Snow
10:41 AM 21.2 °F 14.9 °F 17.6 °F 86% 30.30 in 2.5 mi NNW 4.6 mph - 0.00 in Snow Light Snow
10:43 AM 21.2 °F 14.9 °F 17.6 °F 86% 30.30 in 3.0 mi North 4.6 mph - 0.00 in Snow Light Snow
10:53 AM 21.9 °F - 18.0 °F 85% 30.48 in 3.0 mi Calm Calm - 0.00 in Snow Light Snow
11:00 AM 23.0 °F - 19.4 °F 86% 30.30 in 2.5 mi Calm Calm - 0.00 in Snow Light Snow
11:11 AM 23.0 °F - 17.6 °F 80% 30.31 in 4.0 mi Calm Calm - 0.00 in Snow Light Snow
11:53 AM 24.1 °F - 19.0 °F 81% 30.44 in 10.0 mi Calm Calm - 0.00 in   Overcast
12:53 PM 24.1 °F 13.7 °F 19.0 °F 81% 30.42 in 10.0 mi West 10.4 mph - N/A   Overcast
1:53 PM 26.1 °F 16.8 °F 19.9 °F 78% 30.40 in 10.0 mi West 9.2 mph - 0.00 in   Overcast
2:53 PM 27.0 °F 18.7 °F 19.0 °F 72% 30.38 in 10.0 mi West 8.1 mph - N/A   Overcast
3:53 PM 24.1 °F 18.2 °F 18.0 °F 77% 30.38 in 10.0 mi SW 4.6 mph - N/A   Clear
4:53 PM 21.0 °F 13.4 °F 17.1 °F 85% 30.36 in 10.0 mi SSE 5.8 mph - N/A   Clear
5:53 PM 24.1 °F 13.1 °F 19.9 °F 84% 30.34 in 10.0 mi SSW 11.5 mph - N/A   Overcast
6:53 PM 27.0 °F 16.1 °F 19.9 °F 75% 30.30 in 10.0 mi SW 12.7 mph - N/A   Overcast
7:53 PM 28.9 °F 18.2 °F 19.9 °F 69% 30.28 in 10.0 mi SW 13.8 mph - N/A   Overcast
8:53 PM 30.0 °F 20.5 °F 19.9 °F 66% 30.25 in 10.0 mi SW 11.5 mph - N/A   Overcast
9:53 PM 28.9 °F 16.5 °F 19.9 °F 69% 30.22 in 10.0 mi WSW 18.4 mph - N/A   Overcast
10:53 PM 28.9 °F 17.7 °F 19.9 °F 69% 30.20 in 10.0 mi WSW 15.0 mph - N/A   Overcast
11:53 PM 28.9 °F 16.1 °F 18.0 °F 64% 30.17 in 10.0 mi West 19.6 mph - N/A   Overcast